[[{"header":{"parameterUnit":"m.s-1","parameterCategory":1,"la1":30.2991,"la2":30.254,"lo1":-89.0895,"lo2":-89.0444,"dy":0.0017,"dx":0.0017,"nx":28,"ny":28,"refTime":"2025-03-10T03:00:00:Z","depth":0,"parameterNumber":2,"parameterNumberName":"U-component_of_WINDS"},"data":[0,0,0,0,0,0,0,0,0,0,0,0,0,0,0,0,0,0,0,0,0,0,0,0,0,0,0,0,0,0,0,0,0,0,0,0,0,0,0,0,0,0,0,0,0,0,0,0,0,0,0,0,0,0,0,0,0,0,1.3827,1.3827,0,1.3853,1.3853,1.3853,1.3836,1.3835,1.3835,1.3834,1.3859,1.3861,1.3862,0,0,0,0,0,0,0,0,0,0,0,0,0,1.3764,1.3765,1.3827,1.3827,1.3828,1.3853,1.3853,1.3853,1.3836,1.3835,1.3835,1.3834,1.3859,1.3861,1.3862,0,0,0,0,0,0,0,0,0,0,0,0,0,1.3791,1.3766,1.3827,1.3822,1.3822,1.3853,1.3853,1.3853,1.3837,1.3835,1.3834,1.3833,1.3858,1.386,1.3863,1.3899,0,0,1.3869,1.387,0,0,0,0,0,0,0,0,1.3789,1.3793,1.3823,1.3823,1.3823,1.384,1.384,1.3869,1.3837,1.3831,1.3834,1.3833,1.3854,1.3856,1.3864,1.39,1.3901,1.3869,1.387,1.3871,1.3872,0,0,0,0,0,0,0,1.3787,1.3792,1.3837,1.3823,1.3823,1.3819,1.3822,1.3845,1.3849,1.3832,1.383,1.3834,1.3854,1.3862,1.3864,1.3901,1.3869,1.3871,1.3872,1.3873,1.397,1.3972,0,0,0,0,0,0,1.3786,1.379,1.3836,1.3838,1.3803,1.3821,1.3824,1.3836,1.3848,1.3849,1.3835,1.3833,1.3859,1.3862,1.3865,1.3909,1.3871,1.3873,1.3874,1.3969,1.3971,1.3972,0,0,0,0,0,0,1.3785,1.379,1.3835,1.3814,1.3819,1.3823,1.3837,1.3837,1.3845,1.3851,1.3851,1.3842,1.3858,1.3862,1.3891,1.391,1.3874,1.3876,1.3968,1.397,1.3971,1.3997,0,0,0,0,0,0,1.3783,1.379,1.3803,1.3814,1.3821,1.3861,1.3838,1.3838,1.3848,1.3846,1.3858,1.3859,1.3857,1.3888,1.3893,1.3912,1.3878,1.3966,1.3968,1.3971,1.3994,1.4,1.4004,0,0,0,0,0,1.3781,1.3809,1.3804,1.381,1.3838,1.3862,1.3865,1.3863,1.385,1.3864,1.3868,1.3858,1.3907,1.3891,1.3897,1.3916,1.3965,1.3968,1.3971,1.3992,1.3999,1.4004,0,0,0,0,0,0,1.3799,1.381,1.3805,1.3838,1.3849,1.3859,1.3876,1.387,1.3885,1.3882,1.3879,1.3881,1.3912,1.3917,1.3899,1.3953,1.3934,1.3938,1.3948,1.3954,1.3959,1.3957,1.3879,0,0,0,0,0,1.3808,1.3826,1.3835,1.3863,1.3869,1.3872,1.3882,1.388,1.3891,1.3896,1.3902,1.3913,1.3931,1.3943,1.396,1.3995,1.3998,1.4012,1.4017,1.4021,1.4024,1.4045,1.4051,1.3982,1.3982,1.3982,0,0,1.3824,1.3832,1.3844,1.3867,1.3875,1.3895,1.3876,1.3897,1.3912,1.3899,1.3927,1.3932,1.3945,1.3977,1.3992,1.3983,1.4044,1.4024,1.4027,1.4029,1.4048,1.4055,1.4061,1.3984,1.3984,1.3983,0,0,1.3864,1.3872,1.3897,1.3906,1.392,1.3922,1.3928,1.3939,1.3942,1.3971,1.3962,1.3979,1.401,1.402,1.4029,1.4075,1.4067,1.4081,1.4105,1.4125,1.4131,1.4136,1.4153,1.4159,1.4085,1.4085,1.4085,0,1.3883,1.3912,1.3911,1.3933,1.3944,1.3934,1.3959,1.3969,1.3987,1.3994,1.3984,1.4023,1.4031,1.4066,1.4078,1.4085,1.4093,1.4079,1.413,1.4135,1.4139,1.4156,1.4162,1.4086,1.4086,1.4086,1.4086,0,1.3935,1.3956,1.3974,1.3993,1.4006,1.403,1.4032,1.4045,1.4042,1.4046,1.4075,1.4084,1.4103,1.4112,1.4109,1.4147,1.4141,1.4131,1.4111,1.4148,1.4163,1.4169,1.4088,1.4088,1.4087,1.4087,0,0,1.3986,1.4005,1.4012,1.4021,1.4036,1.4052,1.4076,1.4095,1.4107,1.4121,1.4141,1.4168,1.4159,1.4169,1.4167,1.4185,1.4222,1.4172,1.4173,1.4181,1.4266,1.4274,1.4281,1.4217,1.4218,1.4219,1.4265,0,1.4028,1.407,1.407,1.4109,1.4128,1.412,1.4141,1.4153,1.4157,1.4175,1.418,1.4199,1.4185,1.4192,1.4209,1.4214,1.4239,1.4211,1.4236,1.4237,1.4233,1.4289,1.4297,1.434,1.4271,1.4272,1.4273,0,1.4081,1.4097,1.4138,1.4152,1.416,1.4179,1.4198,1.4215,1.4228,1.423,1.4243,1.4239,1.4264,1.4245,1.428,1.426,1.4271,1.4276,1.4277,1.4279,1.4257,1.4293,1.4353,1.436,1.4282,1.4281,1.4281,0,1.4115,1.4147,1.4176,1.4184,1.42,1.4214,1.4222,1.4234,1.4246,1.4263,1.4271,1.429,1.43,1.4315,1.4317,1.4302,1.4352,1.4332,1.4355,1.4355,1.4365,1.4364,1.4428,1.4372,1.4372,1.4372,1.4372,0,1.4161,1.4186,1.4192,1.4209,1.4238,1.4238,1.4267,1.4273,1.4285,1.4304,1.4299,1.4317,1.4318,1.4337,1.4338,1.4368,1.4372,1.4375,1.4375,1.4375,1.4375,1.4382,1.4379,1.4374,1.4373,1.4373,1.4373,0,1.4203,1.4207,1.4239,1.4252,1.4257,1.4277,1.4289,1.4307,1.4311,1.4336,1.4341,1.4348,1.437,1.4374,1.44,1.4401,1.4436,1.4433,1.4431,1.4431,1.4453,1.4451,1.4523,1.4533,1.4471,1.4472,1.4472,0,1.4232,1.4252,1.4268,1.4281,1.4289,1.431,1.4322,1.4324,1.4338,1.4356,1.4371,1.4393,1.441,1.4446,1.4454,1.4474,1.4471,1.4496,1.4474,1.4474,1.4472,1.4471,1.4473,1.4499,1.45,1.4501,1.4501,0,1.4283,1.4285,1.4303,1.4323,1.4339,1.4355,1.4369,1.438,1.4384,1.4399,1.4422,1.4436,1.4463,1.4485,1.4506,1.4514,1.4508,1.4508,1.4514,1.4514,1.4513,1.4514,1.4442,1.4506,1.4505,1.4505,1.4505,1.4505,1.4319,1.4337,1.4352,1.4373,1.4385,1.4399,1.4416,1.4424,1.4443,1.4465,1.4465,1.4491,1.4506,1.4532,1.4542,1.4562,1.4554,1.4563,1.4566,1.4568,1.457,1.451,1.4566,1.4566,1.4566,1.4566,1.4566,0,1.437,1.438,1.4399,1.4421,1.4438,1.4432,1.4449,1.4464,1.4486,1.4501,1.4519,1.4546,1.4567,1.4577,1.4599,1.4613,1.4611,1.4619,1.4618,1.462,1.4576,1.4568,1.462,1.462,1.462,1.462,1.462,1.462,1.4399,1.4428,1.4432,1.4468,1.4477,1.4502,1.4513,1.4526,1.4538,1.4569,1.4587,1.4593,1.4606,1.4629,1.4649,1.4652,1.466,1.4669,1.467,1.4628,1.4623,1.4617,1.461,1.467,1.467,1.4712,1.4713,1.4713]},{"header":{"parameterUnit":"m.s-1","parameterCategory":1,"la1":30.2991,"la2":30.254,"lo1":-89.0895,"lo2":-89.0444,"dy":0.0017,"dx":0.0017,"nx":28,"ny":28,"refTime":"2025-03-10T03:00:00:Z","depth":0,"parameterNumber":3,"parameterNumberName":"V-component_of_WINDS"},"data":[0,0,0,0,0,0,0,0,0,0,0,0,0,0,0,0,0,0,0,0,0,0,0,0,0,0,0,0,0,0,0,0,0,0,0,0,0,0,0,0,0,0,0,0,0,0,0,0,0,0,0,0,0,0,0,0,0,0,-2.4876,-2.4877,0,-2.5018,-2.502,-2.5021,-2.5019,-2.5017,-2.5015,-2.5014,-2.516,-2.5165,-2.5171,0,0,0,0,0,0,0,0,0,0,0,0,0,-2.4603,-2.4608,-2.4875,-2.4877,-2.4879,-2.5018,-2.502,-2.5022,-2.502,-2.5017,-2.5015,-2.5013,-2.5158,-2.5165,-2.5171,0,0,0,0,0,0,0,0,0,0,0,0,0,-2.4731,-2.4609,-2.4875,-2.4895,-2.4898,-2.5017,-2.502,-2.5022,-2.502,-2.5017,-2.5014,-2.5012,-2.5156,-2.5164,-2.5172,-2.5282,0,0,-2.5198,-2.5202,0,0,0,0,0,0,0,0,-2.4723,-2.4741,-2.489,-2.4894,-2.4897,-2.4998,-2.4977,-2.5109,-2.5021,-2.4974,-2.5014,-2.501,-2.5108,-2.512,-2.5153,-2.5289,-2.5295,-2.5199,-2.5204,-2.5208,-2.521,0,0,0,0,0,0,0,-2.4715,-2.4735,-2.4932,-2.4892,-2.4897,-2.4897,-2.4912,-2.5002,-2.5055,-2.4978,-2.4978,-2.4995,-2.511,-2.5145,-2.5157,-2.5297,-2.5199,-2.5206,-2.5212,-2.5215,-2.5531,-2.5534,0,0,0,0,0,0,-2.4702,-2.4727,-2.4927,-2.4936,-2.4802,-2.4904,-2.4921,-2.4969,-2.5054,-2.5065,-2.4997,-2.4994,-2.5132,-2.5147,-2.5162,-2.5297,-2.5208,-2.5216,-2.5221,-2.5528,-2.5532,-2.5535,0,0,0,0,0,0,-2.4696,-2.4719,-2.4922,-2.4832,-2.4858,-2.4912,-2.4965,-2.4973,-2.5008,-2.5069,-2.5078,-2.5024,-2.513,-2.515,-2.5252,-2.5302,-2.5219,-2.5227,-2.5524,-2.5529,-2.5533,-2.5567,0,0,0,0,0,0,-2.4688,-2.4717,-2.4759,-2.4833,-2.4862,-2.5009,-2.4968,-2.4978,-2.5023,-2.5021,-2.5096,-2.5106,-2.513,-2.524,-2.5261,-2.5312,-2.5234,-2.5519,-2.5526,-2.5532,-2.5562,-2.5572,-2.5582,0,0,0,0,0,-2.4678,-2.4763,-2.4761,-2.4785,-2.4916,-2.5012,-2.5029,-2.5055,-2.5027,-2.507,-2.5109,-2.5104,-2.5293,-2.525,-2.5274,-2.5329,-2.5516,-2.5524,-2.5531,-2.5557,-2.557,-2.5581,0,0,0,0,0,0,-2.4693,-2.4773,-2.4772,-2.4883,-2.4941,-2.5012,-2.5066,-2.5067,-2.5135,-2.5129,-2.5158,-2.5175,-2.5278,-2.5313,-2.5264,-2.544,-2.5401,-2.5414,-2.5413,-2.5426,-2.5436,-2.5425,-2.5241,0,0,0,0,0,-2.471,-2.4781,-2.4847,-2.4938,-2.4967,-2.5012,-2.5055,-2.5069,-2.5131,-2.5155,-2.5202,-2.5261,-2.5335,-2.5382,-2.5452,-2.5567,-2.5584,-2.5616,-2.5626,-2.5634,-2.5645,-2.5709,-2.5724,-2.5559,-2.5559,-2.5559,0,0,-2.4744,-2.4796,-2.4839,-2.4942,-2.4989,-2.5063,-2.5032,-2.5112,-2.5167,-2.5167,-2.5267,-2.5303,-2.5372,-2.5481,-2.5531,-2.5514,-2.5694,-2.5643,-2.5649,-2.5656,-2.5718,-2.5734,-2.5748,-2.5565,-2.5564,-2.5563,0,0,-2.4844,-2.489,-2.4972,-2.502,-2.5091,-2.5121,-2.514,-2.5211,-2.5236,-2.5336,-2.5338,-2.5405,-2.553,-2.5579,-2.562,-2.5741,-2.5739,-2.5763,-2.5815,-2.5878,-2.5891,-2.5902,-2.5946,-2.5962,-2.5773,-2.5773,-2.5773,0,-2.4878,-2.4989,-2.5014,-2.5094,-2.514,-2.5144,-2.5228,-2.5273,-2.5363,-2.5395,-2.5374,-2.5532,-2.5578,-2.57,-2.5729,-2.5762,-2.5786,-2.5755,-2.5887,-2.5899,-2.591,-2.5952,-2.5969,-2.5776,-2.5775,-2.5775,-2.5775,0,-2.5028,-2.5105,-2.5162,-2.525,-2.5302,-2.5384,-2.5422,-2.5472,-2.5482,-2.5514,-2.5617,-2.5673,-2.5755,-2.5785,-2.5796,-2.5909,-2.5896,-2.588,-2.5842,-2.5928,-2.5968,-2.5984,-2.5779,-2.5778,-2.5778,-2.5777,0,0,-2.5141,-2.5243,-2.5263,-2.5304,-2.5383,-2.5444,-2.5526,-2.5606,-2.5649,-2.5712,-2.5782,-2.5888,-2.5875,-2.5922,-2.5938,-2.5993,-2.6086,-2.5971,-2.5973,-2.5991,-2.6215,-2.6227,-2.6245,-2.6085,-2.6088,-2.6091,-2.621,0,-2.5251,-2.5396,-2.5422,-2.5549,-2.5622,-2.5627,-2.5698,-2.5755,-2.5787,-2.5854,-2.5889,-2.5964,-2.594,-2.5969,-2.6023,-2.6063,-2.6132,-2.6055,-2.6151,-2.6155,-2.6135,-2.6266,-2.6278,-2.6388,-2.6226,-2.6228,-2.623,0,-2.5398,-2.5465,-2.5599,-2.567,-2.5701,-2.5765,-2.5842,-2.5905,-2.597,-2.599,-2.6043,-2.6053,-2.6139,-2.6097,-2.6217,-2.6164,-2.6205,-2.6231,-2.6236,-2.6246,-2.6198,-2.6281,-2.6423,-2.644,-2.6255,-2.6253,-2.6251,0,-2.5469,-2.5592,-2.5689,-2.5723,-2.5808,-2.5853,-2.589,-2.5952,-2.6,-2.6067,-2.6098,-2.6175,-2.6217,-2.6276,-2.6307,-2.6273,-2.6425,-2.6385,-2.6444,-2.6443,-2.6476,-2.6474,-2.6628,-2.6501,-2.6501,-2.6501,-2.65,0,-2.5589,-2.5671,-2.5722,-2.5782,-2.5875,-2.5904,-2.5995,-2.6032,-2.6087,-2.6154,-2.6163,-2.6226,-2.6263,-2.6332,-2.6357,-2.6453,-2.6471,-2.649,-2.6496,-2.649,-2.6488,-2.6518,-2.6511,-2.6505,-2.6504,-2.6503,-2.6502,0,-2.5683,-2.5721,-2.5827,-2.5899,-2.5919,-2.5984,-2.6046,-2.6104,-2.6136,-2.6222,-2.6244,-2.6294,-2.6376,-2.6412,-2.6513,-2.6529,-2.6639,-2.6639,-2.6618,-2.662,-2.6678,-2.6672,-2.6857,-2.6884,-2.6738,-2.6739,-2.6741,0,-2.5758,-2.5822,-2.59,-2.5946,-2.5985,-2.6059,-2.6107,-2.6138,-2.6189,-2.6268,-2.6318,-2.6399,-2.6466,-2.6597,-2.6643,-2.672,-2.6722,-2.6782,-2.6734,-2.6727,-2.6725,-2.6721,-2.6728,-2.6791,-2.6792,-2.6793,-2.6794,0,-2.5887,-2.5902,-2.5972,-2.6049,-2.6107,-2.6169,-2.6229,-2.6266,-2.6307,-2.6363,-2.6447,-2.6499,-2.6602,-2.6684,-2.6764,-2.6803,-2.6807,-2.6809,-2.6827,-2.6822,-2.6807,-2.6817,-2.6642,-2.6805,-2.6804,-2.6803,-2.6802,-2.6802,-2.5975,-2.6032,-2.6097,-2.6175,-2.6223,-2.628,-2.6339,-2.6379,-2.6449,-2.6536,-2.655,-2.6639,-2.6704,-2.6812,-2.6854,-2.6925,-2.6911,-2.6936,-2.6943,-2.6949,-2.6953,-2.6795,-2.6939,-2.6939,-2.6939,-2.6939,-2.6939,0,-2.6105,-2.6147,-2.6218,-2.6303,-2.6364,-2.6362,-2.6429,-2.6481,-2.6559,-2.6619,-2.6685,-2.6782,-2.6861,-2.6914,-2.6994,-2.7041,-2.7045,-2.7061,-2.7059,-2.7068,-2.6961,-2.6938,-2.7057,-2.7057,-2.7057,-2.7057,-2.7057,-2.7057,-2.618,-2.6277,-2.6301,-2.6423,-2.6464,-2.6552,-2.6591,-2.6644,-2.6692,-2.6799,-2.6866,-2.6899,-2.6957,-2.7042,-2.7115,-2.7128,-2.7158,-2.7176,-2.7189,-2.7088,-2.7075,-2.7064,-2.7042,-2.7182,-2.7182,-2.729,-2.7291,-2.7292]}]]